contact:dominique.lefevre@mio.osupytheas.fr, maurice.libes@osupytheas.fr, didier.mallarino@osupytheas.fr
Project:EMSO http://www.emso-fr.org/EMSO-France
Depth: 2436.0 m
Title:EMSO Ligure Ouest : Data MII capteur MICROCAT
DateTime_Computer,Latitude,Longitude,Temperature,Conductivity,Pressure,DateTime_Instrument
DateTime_Computer,Latitude,Longitude,degC,S m-1,dbar,DateTime_Instrument
2022-08-03T00:02:43Z,42.805,6.029,13.3015,4.60069,2470.53,2022-8-03T02:04:31Z
2022-08-03T00:05:47Z,42.805,6.029,13.3013,4.60063,2470.539,2022-8-03T02:07:35Z
2022-08-03T00:08:50Z,42.805,6.029,13.3013,4.60064,2470.53,2022-8-03T02:10:38Z
2022-08-03T00:11:53Z,42.805,6.029,13.3019,4.60064,2470.553,2022-8-03T02:13:41Z
2022-08-03T00:14:56Z,42.805,6.029,13.3011,4.60059,2470.53,2022-8-03T02:16:44Z
2022-08-03T00:17:59Z,42.805,6.029,13.3016,4.60058,2470.567,2022-8-03T02:19:47Z
2022-08-03T00:21:02Z,42.805,6.029,13.3015,4.60063,2470.53,2022-8-03T02:22:50Z
2022-08-03T00:24:05Z,42.805,6.029,13.3013,4.60067,2470.544,2022-8-03T02:25:53Z
2022-08-03T00:27:08Z,42.805,6.029,13.3014,4.60059,2470.544,2022-8-03T02:28:56Z
2022-08-03T00:30:11Z,42.805,6.029,13.3020,4.60081,2470.53,2022-8-03T02:32:00Z
2022-08-03T00:33:15Z,42.805,6.029,13.3022,4.60079,2470.53,2022-8-03T02:35:03Z
2022-08-03T00:36:18Z,42.805,6.029,13.3014,4.60064,2470.544,2022-8-03T02:38:06Z
2022-08-03T00:39:21Z,42.805,6.029,13.3019,4.60067,2470.53,2022-8-03T02:41:09Z
2022-08-03T00:42:24Z,42.805,6.029,13.3015,4.60056,2470.516,2022-8-03T02:44:12Z
2022-08-03T00:45:27Z,42.805,6.029,13.3013,4.60059,2470.507,2022-8-03T02:47:15Z
2022-08-03T00:48:30Z,42.805,6.029,13.3015,4.60063,2470.53,2022-8-03T02:50:18Z
2022-08-03T00:51:33Z,42.805,6.029,13.3019,4.60062,2470.52,2022-8-03T02:53:21Z
2022-08-03T00:54:36Z,42.805,6.029,13.3013,4.60063,2470.544,2022-8-03T02:56:24Z
2022-08-03T00:57:39Z,42.805,6.029,13.3017,4.60058,2470.53,2022-8-03T02:59:28Z
2022-08-03T01:00:43Z,42.805,6.029,13.3011,4.60066,2470.52,2022-8-03T03:02:31Z
2022-08-03T01:03:46Z,42.805,6.029,13.3014,4.60057,2470.483,2022-8-03T03:05:34Z
2022-08-03T01:06:49Z,42.805,6.029,13.3015,4.60059,2470.53,2022-8-03T03:08:37Z
2022-08-03T01:09:52Z,42.805,6.029,13.3014,4.60055,2470.52,2022-8-03T03:11:40Z
2022-08-03T01:12:55Z,42.805,6.029,13.3012,4.60059,2470.507,2022-8-03T03:14:43Z
2022-08-03T01:15:58Z,42.805,6.029,13.3013,4.60055,2470.544,2022-8-03T03:17:46Z
2022-08-03T01:19:01Z,42.805,6.029,13.3014,4.60061,2470.53,2022-8-03T03:20:49Z
2022-08-03T01:22:04Z,42.805,6.029,13.3019,4.60060,2470.483,2022-8-03T03:23:52Z
2022-08-03T01:25:07Z,42.805,6.029,13.3015,4.60060,2470.497,2022-8-03T03:26:56Z
2022-08-03T01:28:11Z,42.805,6.029,13.3017,4.60056,2470.497,2022-8-03T03:29:59Z
2022-08-03T01:31:14Z,42.805,6.029,13.3011,4.60058,2470.483,2022-8-03T03:33:02Z
2022-08-03T01:34:17Z,42.805,6.029,13.3016,4.60056,2470.507,2022-8-03T03:36:05Z
2022-08-03T01:37:20Z,42.805,6.029,13.3014,4.60063,2470.46,2022-8-03T03:39:08Z
2022-08-03T01:40:23Z,42.805,6.029,13.3017,4.60062,2470.474,2022-8-03T03:42:11Z
2022-08-03T01:43:26Z,42.805,6.029,13.3014,4.60058,2470.483,2022-8-03T03:45:14Z
2022-08-03T01:46:29Z,42.805,6.029,13.3014,4.60057,2470.497,2022-8-03T03:48:17Z
2022-08-03T01:49:32Z,42.805,6.029,13.3012,4.60057,2470.497,2022-8-03T03:51:20Z
2022-08-03T01:52:36Z,42.805,6.029,13.3012,4.60052,2470.544,2022-8-03T03:54:24Z
2022-08-03T01:55:39Z,42.805,6.029,13.3011,4.60056,2470.507,2022-8-03T03:57:27Z
2022-08-03T01:58:42Z,42.805,6.029,13.3015,4.60060,2470.483,2022-8-03T04:00:30Z
2022-08-03T02:01:45Z,42.805,6.029,13.3015,4.60060,2470.483,2022-8-03T04:03:33Z
2022-08-03T02:04:48Z,42.805,6.029,13.3015,4.60055,2470.437,2022-8-03T04:06:36Z
2022-08-03T02:07:51Z,42.805,6.029,13.3012,4.60061,2470.46,2022-8-03T04:09:39Z
2022-08-03T02:10:54Z,42.805,6.029,13.3019,4.60064,2470.474,2022-8-03T04:12:42Z
2022-08-03T02:13:57Z,42.805,6.029,13.3015,4.60060,2470.497,2022-8-03T04:15:45Z
2022-08-03T02:17:00Z,42.805,6.029,13.3014,4.60064,2470.46,2022-8-03T04:18:49Z
2022-08-03T02:20:04Z,42.805,6.029,13.3015,4.60056,2470.483,2022-8-03T04:21:52Z
2022-08-03T02:23:07Z,42.805,6.029,13.3009,4.60060,2470.474,2022-8-03T04:24:55Z
2022-08-03T02:26:10Z,42.805,6.029,13.3015,4.60062,2470.437,2022-8-03T04:27:58Z
2022-08-03T02:29:13Z,42.805,6.029,13.3015,4.60062,2470.483,2022-8-03T04:31:01Z
2022-08-03T02:32:16Z,42.805,6.029,13.3008,4.60064,2470.45,2022-8-03T04:34:04Z
2022-08-03T02:35:19Z,42.805,6.029,13.3016,4.60058,2470.46,2022-8-03T04:37:07Z
2022-08-03T02:38:22Z,42.805,6.029,13.3009,4.60054,2470.474,2022-8-03T04:40:10Z
2022-08-03T02:41:25Z,42.805,6.029,13.3014,4.60061,2470.46,2022-8-03T04:43:14Z
2022-08-03T02:44:29Z,42.805,6.029,13.3013,4.60076,2470.46,2022-8-03T04:46:17Z
2022-08-03T02:47:32Z,42.805,6.029,13.3015,4.60059,2470.474,2022-8-03T04:49:20Z
2022-08-03T02:50:35Z,42.805,6.029,13.3018,4.60062,2470.45,2022-8-03T04:52:23Z
2022-08-03T02:53:38Z,42.805,6.029,13.3015,4.60060,2470.474,2022-8-03T04:55:26Z
2022-08-03T02:56:41Z,42.805,6.029,13.3018,4.60055,2470.45,2022-8-03T04:58:29Z
2022-08-03T02:59:44Z,42.805,6.029,13.3015,4.60054,2470.437,2022-8-03T05:01:32Z
2022-08-03T03:02:47Z,42.805,6.029,13.3021,4.60067,2470.437,2022-8-03T05:04:35Z
2022-08-03T03:05:50Z,42.805,6.029,13.3019,4.60063,2470.46,2022-8-03T05:07:38Z
2022-08-03T03:08:53Z,42.805,6.029,13.3014,4.60059,2470.413,2022-8-03T05:10:42Z
2022-08-03T03:11:57Z,42.805,6.029,13.3010,4.60054,2470.46,2022-8-03T05:13:45Z
2022-08-03T03:15:00Z,42.805,6.029,13.3012,4.60064,2470.45,2022-8-03T05:16:48Z
2022-08-03T03:18:03Z,42.805,6.029,13.3016,4.60054,2470.427,2022-8-03T05:19:51Z
2022-08-03T03:21:06Z,42.805,6.029,13.3014,4.60062,2470.437,2022-8-03T05:22:54Z
2022-08-03T03:24:09Z,42.805,6.029,13.3017,4.60057,2470.437,2022-8-03T05:25:57Z
2022-08-03T03:27:12Z,42.805,6.029,13.3013,4.60054,2470.413,2022-8-03T05:29:00Z
2022-08-03T03:30:15Z,42.805,6.029,13.3015,4.60062,2470.45,2022-8-03T05:32:03Z
2022-08-03T03:33:18Z,42.805,6.029,13.3017,4.60067,2470.404,2022-8-03T05:35:07Z
2022-08-03T03:36:22Z,42.805,6.029,13.3009,4.60058,2470.427,2022-8-03T05:38:10Z
2022-08-03T03:39:25Z,42.805,6.029,13.3015,4.60061,2470.404,2022-8-03T05:41:13Z
2022-08-03T03:42:28Z,42.805,6.029,13.3008,4.60064,2470.427,2022-8-03T05:44:16Z
2022-08-03T03:45:31Z,42.805,6.029,13.3016,4.60062,2470.437,2022-8-03T05:47:19Z
2022-08-03T03:48:34Z,42.805,6.029,13.3015,4.60059,2470.413,2022-8-03T05:50:22Z
2022-08-03T03:51:37Z,42.805,6.029,13.3015,4.60054,2470.45,2022-8-03T05:53:25Z
2022-08-03T03:54:40Z,42.805,6.029,13.3009,4.60056,2470.427,2022-8-03T05:56:28Z
2022-08-03T03:57:43Z,42.805,6.029,13.3011,4.60054,2470.404,2022-8-03T05:59:31Z
2022-08-03T04:00:46Z,42.805,6.029,13.3014,4.60056,2470.413,2022-8-03T06:02:35Z
2022-08-03T04:03:50Z,42.805,6.029,13.3009,4.60060,2470.39,2022-8-03T06:05:38Z
2022-08-03T04:06:53Z,42.805,6.029,13.3017,4.60060,2470.427,2022-8-03T06:08:41Z
2022-08-03T04:09:56Z,42.805,6.029,13.3015,4.60064,2470.437,2022-8-03T06:11:44Z
2022-08-03T04:12:59Z,42.805,6.029,13.3014,4.60057,2470.423,2022-8-03T06:14:47Z
2022-08-03T04:16:02Z,42.805,6.029,13.3014,4.60056,2470.427,2022-8-03T06:17:50Z
2022-08-03T04:19:05Z,42.805,6.029,13.3014,4.60057,2470.427,2022-8-03T06:20:53Z
2022-08-03T04:22:08Z,42.805,6.029,13.3015,4.60056,2470.39,2022-8-03T06:23:56Z
2022-08-03T04:25:11Z,42.805,6.029,13.3012,4.60054,2470.427,2022-8-03T06:26:59Z
2022-08-03T04:28:14Z,42.805,6.029,13.3014,4.60060,2470.38,2022-8-03T06:30:03Z
2022-08-03T04:31:18Z,42.805,6.029,13.3017,4.60062,2470.427,2022-8-03T06:33:06Z
2022-08-03T04:34:21Z,42.805,6.029,13.3010,4.60064,2470.404,2022-8-03T06:36:09Z
2022-08-03T04:37:24Z,42.805,6.029,13.3015,4.60066,2470.404,2022-8-03T06:39:12Z
2022-08-03T04:40:27Z,42.805,6.029,13.3016,4.60055,2470.427,2022-8-03T06:42:15Z
2022-08-03T04:43:30Z,42.805,6.029,13.3020,4.60062,2470.366,2022-8-03T06:45:18Z
2022-08-03T04:46:33Z,42.805,6.029,13.3015,4.60057,2470.39,2022-8-03T06:48:21Z
2022-08-03T04:49:36Z,42.805,6.029,13.3016,4.60060,2470.413,2022-8-03T06:51:24Z
2022-08-03T04:52:39Z,42.805,6.029,13.3011,4.60061,2470.413,2022-8-03T06:54:28Z
2022-08-03T04:55:43Z,42.805,6.029,13.3011,4.60057,2470.39,2022-8-03T06:57:31Z
2022-08-03T04:58:46Z,42.805,6.029,13.3015,4.60060,2470.39,2022-8-03T07:00:34Z
2022-08-03T05:01:49Z,42.805,6.029,13.3017,4.60058,2470.39,2022-8-03T07:03:37Z
2022-08-03T05:04:52Z,42.805,6.029,13.3011,4.60054,2470.404,2022-8-03T07:06:40Z
2022-08-03T05:07:55Z,42.805,6.029,13.3015,4.60061,2470.413,2022-8-03T07:09:43Z
2022-08-03T05:10:58Z,42.805,6.029,13.3019,4.60074,2470.404,2022-8-03T07:12:46Z
2022-08-03T05:14:01Z,42.805,6.029,13.3015,4.60059,2470.413,2022-8-03T07:15:49Z
2022-08-03T05:17:04Z,42.805,6.029,13.3015,4.60059,2470.413,2022-8-03T07:18:52Z
2022-08-03T05:20:07Z,42.805,6.029,13.3019,4.60064,2470.427,2022-8-03T07:21:56Z
2022-08-03T05:23:11Z,42.805,6.029,13.3011,4.60064,2470.404,2022-8-03T07:24:59Z
2022-08-03T05:26:14Z,42.805,6.029,13.3019,4.60062,2470.413,2022-8-03T07:28:02Z
2022-08-03T05:29:17Z,42.805,6.029,13.3014,4.60067,2470.39,2022-8-03T07:31:05Z
2022-08-03T05:32:20Z,42.805,6.029,13.3017,4.60066,2470.413,2022-8-03T07:34:08Z
2022-08-03T05:35:23Z,42.805,6.029,13.3018,4.60057,2470.413,2022-8-03T07:37:11Z
2022-08-03T05:38:26Z,42.805,6.029,13.3015,4.60055,2470.404,2022-8-03T07:40:14Z
2022-08-03T05:41:29Z,42.805,6.029,13.3014,4.60061,2470.413,2022-8-03T07:43:17Z
2022-08-03T05:44:32Z,42.805,6.029,13.3017,4.60070,2470.45,2022-8-03T07:46:21Z
2022-08-03T05:47:36Z,42.805,6.029,13.3017,4.60057,2470.39,2022-8-03T07:49:24Z
2022-08-03T05:50:39Z,42.805,6.029,13.3015,4.60062,2470.39,2022-8-03T07:52:27Z
2022-08-03T05:53:42Z,42.805,6.029,13.3014,4.60063,2470.46,2022-8-03T07:55:30Z
2022-08-03T05:56:45Z,42.805,6.029,13.3013,4.60056,2470.39,2022-8-03T07:58:33Z
2022-08-03T05:59:48Z,42.805,6.029,13.3015,4.60056,2470.427,2022-8-03T08:01:36Z
2022-08-03T06:02:51Z,42.805,6.029,13.3015,4.60064,2470.437,2022-8-03T08:04:39Z
2022-08-03T06:05:54Z,42.805,6.029,13.3009,4.60054,2470.413,2022-8-03T08:07:42Z
2022-08-03T06:08:57Z,42.805,6.029,13.3019,4.60057,2470.413,2022-8-03T08:10:45Z
2022-08-03T06:12:00Z,42.805,6.029,13.3013,4.60057,2470.427,2022-8-03T08:13:49Z
2022-08-03T06:15:04Z,42.805,6.029,13.3014,4.60056,2470.39,2022-8-03T08:16:52Z
2022-08-03T06:18:07Z,42.805,6.029,13.3016,4.60062,2470.413,2022-8-03T08:19:55Z
2022-08-03T06:21:10Z,42.805,6.029,13.3011,4.60053,2470.437,2022-8-03T08:22:58Z
2022-08-03T06:24:13Z,42.805,6.029,13.3015,4.60060,2470.413,2022-8-03T08:26:01Z
2022-08-03T06:27:16Z,42.805,6.029,13.3012,4.60064,2470.427,2022-8-03T08:29:04Z
2022-08-03T06:30:19Z,42.805,6.029,13.3015,4.60059,2470.427,2022-8-03T08:32:07Z
2022-08-03T06:33:22Z,42.805,6.029,13.3011,4.60062,2470.45,2022-8-03T08:35:10Z
2022-08-03T06:36:25Z,42.805,6.029,13.3012,4.60052,2470.427,2022-8-03T08:38:14Z
2022-08-03T06:39:29Z,42.805,6.029,13.3010,4.60056,2470.413,2022-8-03T08:41:17Z
2022-08-03T06:42:32Z,42.805,6.029,13.3019,4.60072,2470.427,2022-8-03T08:44:20Z
2022-08-03T06:45:35Z,42.805,6.029,13.3013,4.60057,2470.437,2022-8-03T08:47:23Z
2022-08-03T06:48:38Z,42.805,6.029,13.3017,4.60064,2470.427,2022-8-03T08:50:26Z
2022-08-03T06:51:41Z,42.805,6.029,13.3020,4.60069,2470.46,2022-8-03T08:53:29Z
2022-08-03T06:54:44Z,42.805,6.029,13.3013,4.60062,2470.413,2022-8-03T08:56:32Z
2022-08-03T06:57:47Z,42.805,6.029,13.3015,4.60061,2470.437,2022-8-03T08:59:35Z
2022-08-03T07:00:50Z,42.805,6.029,13.3015,4.60062,2470.437,2022-8-03T09:02:38Z
2022-08-03T07:03:53Z,42.805,6.029,13.3015,4.60068,2470.46,2022-8-03T09:05:42Z
2022-08-03T07:06:57Z,42.805,6.029,13.3012,4.60056,2470.437,2022-8-03T09:08:45Z
2022-08-03T07:10:00Z,42.805,6.029,13.3011,4.60063,2470.437,2022-8-03T09:11:48Z
2022-08-03T07:13:03Z,42.805,6.029,13.3012,4.60062,2470.46,2022-8-03T09:14:51Z
2022-08-03T07:16:06Z,42.805,6.029,13.3020,4.60064,2470.474,2022-8-03T09:17:54Z
2022-08-03T07:19:09Z,42.805,6.029,13.3012,4.60056,2470.474,2022-8-03T09:20:57Z
2022-08-03T07:22:12Z,42.805,6.029,13.3015,4.60057,2470.46,2022-8-03T09:24:00Z
2022-08-03T07:25:15Z,42.805,6.029,13.3013,4.60058,2470.46,2022-8-03T09:27:03Z
2022-08-03T07:28:18Z,42.805,6.029,13.3018,4.60064,2470.46,2022-8-03T09:30:07Z
2022-08-03T07:31:21Z,42.805,6.029,13.3009,4.60056,2470.474,2022-8-03T09:33:10Z
2022-08-03T07:34:25Z,42.805,6.029,13.3012,4.60054,2470.474,2022-8-03T09:36:13Z
2022-08-03T07:37:28Z,42.805,6.029,13.3014,4.60064,2470.497,2022-8-03T09:39:16Z
2022-08-03T07:40:31Z,42.805,6.029,13.3014,4.60062,2470.46,2022-8-03T09:42:19Z
2022-08-03T07:43:34Z,42.805,6.029,13.3016,4.60060,2470.497,2022-8-03T09:45:22Z
2022-08-03T07:46:37Z,42.805,6.029,13.3012,4.60056,2470.483,2022-8-03T09:48:25Z
2022-08-03T07:49:40Z,42.805,6.029,13.3013,4.60056,2470.483,2022-8-03T09:51:28Z
2022-08-03T07:52:43Z,42.805,6.029,13.3012,4.60074,2470.46,2022-8-03T09:54:31Z
2022-08-03T07:55:46Z,42.805,6.029,13.3014,4.60055,2470.483,2022-8-03T09:57:35Z
2022-08-03T07:58:50Z,42.805,6.029,13.3011,4.60058,2470.52,2022-8-03T10:00:38Z
2022-08-03T08:01:53Z,42.805,6.029,13.3011,4.60058,2470.507,2022-8-03T10:03:41Z
2022-08-03T08:04:56Z,42.805,6.029,13.3012,4.60057,2470.507,2022-8-03T10:06:44Z
2022-08-03T08:07:59Z,42.805,6.029,13.3015,4.60064,2470.52,2022-8-03T10:09:47Z
2022-08-03T08:11:02Z,42.805,6.029,13.3015,4.60061,2470.507,2022-8-03T10:12:50Z
2022-08-03T08:14:05Z,42.805,6.029,13.3014,4.60067,2470.52,2022-8-03T10:15:53Z
2022-08-03T08:17:08Z,42.805,6.029,13.3021,4.60061,2470.544,2022-8-03T10:18:56Z
2022-08-03T08:20:11Z,42.805,6.029,13.3019,4.60063,2470.544,2022-8-03T10:22:00Z
2022-08-03T08:23:15Z,42.805,6.029,13.3018,4.60061,2470.52,2022-8-03T10:25:03Z
2022-08-03T08:26:18Z,42.805,6.029,13.3019,4.60072,2470.497,2022-8-03T10:28:06Z
2022-08-03T08:29:21Z,42.805,6.029,13.3015,4.60059,2470.497,2022-8-03T10:31:09Z
2022-08-03T08:32:24Z,42.805,6.029,13.3008,4.60056,2470.507,2022-8-03T10:34:12Z
2022-08-03T08:35:27Z,42.805,6.029,13.3013,4.60061,2470.53,2022-8-03T10:37:15Z
2022-08-03T08:38:30Z,42.805,6.029,13.3015,4.60067,2470.544,2022-8-03T10:40:18Z
2022-08-03T08:41:33Z,42.805,6.029,13.3017,4.60067,2470.544,2022-8-03T10:43:21Z
2022-08-03T08:44:36Z,42.805,6.029,13.3011,4.60061,2470.507,2022-8-03T10:46:24Z
2022-08-03T08:47:39Z,42.805,6.029,13.3009,4.60059,2470.53,2022-8-03T10:49:28Z
2022-08-03T08:50:43Z,42.805,6.029,13.3014,4.60067,2470.53,2022-8-03T10:52:31Z
2022-08-03T08:53:46Z,42.805,6.029,13.3011,4.60061,2470.53,2022-8-03T10:55:34Z
2022-08-03T08:56:49Z,42.805,6.029,13.3010,4.60056,2470.544,2022-8-03T10:58:37Z
2022-08-03T08:59:52Z,42.805,6.029,13.3013,4.60064,2470.544,2022-8-03T11:01:40Z
2022-08-03T09:02:55Z,42.805,6.029,13.3014,4.60057,2470.544,2022-8-03T11:04:43Z
2022-08-03T09:05:58Z,42.805,6.029,13.3012,4.60060,2470.567,2022-8-03T11:07:46Z
2022-08-03T09:09:01Z,42.805,6.029,13.3014,4.60059,2470.544,2022-8-03T11:10:49Z
2022-08-03T09:12:04Z,42.805,6.029,13.3008,4.60055,2470.544,2022-8-03T11:13:53Z
2022-08-03T09:15:08Z,42.805,6.029,13.3015,4.60057,2470.591,2022-8-03T11:16:56Z
2022-08-03T09:18:11Z,42.805,6.029,13.3013,4.60052,2470.553,2022-8-03T11:19:59Z
2022-08-03T09:21:14Z,42.805,6.029,13.3014,4.60055,2470.553,2022-8-03T11:23:02Z
2022-08-03T09:24:17Z,42.805,6.029,13.3014,4.60057,2470.614,2022-8-03T11:26:05Z
2022-08-03T09:27:20Z,42.805,6.029,13.3016,4.60062,2470.53,2022-8-03T11:29:08Z
2022-08-03T09:30:23Z,42.805,6.029,13.3016,4.60057,2470.567,2022-8-03T11:32:11Z
2022-08-03T09:33:26Z,42.805,6.029,13.3013,4.60060,2470.553,2022-8-03T11:35:14Z
2022-08-03T09:36:29Z,42.805,6.029,13.3015,4.60061,2470.553,2022-8-03T11:38:18Z
2022-08-03T09:39:33Z,42.805,6.029,13.3017,4.60058,2470.577,2022-8-03T11:41:21Z
2022-08-03T09:42:36Z,42.805,6.029,13.3013,4.60063,2470.553,2022-8-03T11:44:24Z
2022-08-03T09:45:39Z,42.805,6.029,13.3022,4.60069,2470.577,2022-8-03T11:47:27Z
2022-08-03T09:48:42Z,42.805,6.029,13.3013,4.60057,2470.553,2022-8-03T11:50:30Z
2022-08-03T09:51:45Z,42.805,6.029,13.3015,4.60060,2470.577,2022-8-03T11:53:33Z
2022-08-03T09:54:48Z,42.805,6.029,13.3019,4.60066,2470.567,2022-8-03T11:56:36Z
2022-08-03T09:57:51Z,42.805,6.029,13.3017,4.60060,2470.577,2022-8-03T11:59:39Z
2022-08-03T10:00:54Z,42.805,6.029,13.3013,4.60061,2470.577,2022-8-03T12:02:43Z
2022-08-03T10:03:57Z,42.805,6.029,13.3018,4.60055,2470.577,2022-8-03T12:05:46Z
2022-08-03T10:07:01Z,42.805,6.029,13.3014,4.60067,2470.577,2022-8-03T12:08:49Z
2022-08-03T10:10:04Z,42.805,6.029,13.3009,4.60056,2470.553,2022-8-03T12:11:52Z
2022-08-03T10:13:07Z,42.805,6.029,13.3015,4.60063,2470.553,2022-8-03T12:14:55Z
2022-08-03T10:16:10Z,42.805,6.029,13.3010,4.60069,2470.553,2022-8-03T12:17:58Z
2022-08-03T10:19:13Z,42.805,6.029,13.3015,4.60071,2470.591,2022-8-03T12:21:01Z
2022-08-03T10:22:16Z,42.805,6.029,13.3013,4.60054,2470.567,2022-8-03T12:24:04Z
2022-08-03T10:25:19Z,42.805,6.029,13.3017,4.60057,2470.544,2022-8-03T12:27:07Z
2022-08-03T10:28:22Z,42.805,6.029,13.3011,4.60061,2470.577,2022-8-03T12:30:11Z
2022-08-03T10:31:26Z,42.805,6.029,13.3014,4.60062,2470.591,2022-8-03T12:33:14Z
2022-08-03T10:34:29Z,42.805,6.029,13.3019,4.60068,2470.614,2022-8-03T12:36:17Z
2022-08-03T10:37:32Z,42.805,6.029,13.3014,4.60062,2470.591,2022-8-03T12:39:20Z
2022-08-03T10:40:35Z,42.805,6.029,13.3013,4.60058,2470.6,2022-8-03T12:42:23Z
2022-08-03T10:43:38Z,42.805,6.029,13.3014,4.60057,2470.553,2022-8-03T12:45:26Z
2022-08-03T10:46:41Z,42.805,6.029,13.3014,4.60055,2470.577,2022-8-03T12:48:29Z
2022-08-03T10:49:44Z,42.805,6.029,13.3018,4.60064,2470.577,2022-8-03T12:51:32Z
2022-08-03T10:52:47Z,42.805,6.029,13.3010,4.60067,2470.586,2022-8-03T12:54:36Z
2022-08-03T10:55:51Z,42.805,6.029,13.3013,4.60057,2470.577,2022-8-03T12:57:39Z
2022-08-03T10:58:54Z,42.805,6.029,13.3012,4.60053,2470.553,2022-8-03T13:00:42Z
2022-08-03T11:01:57Z,42.805,6.029,13.3014,4.60067,2470.567,2022-8-03T13:03:45Z
2022-08-03T11:05:00Z,42.805,6.029,13.3015,4.60059,2470.577,2022-8-03T13:06:48Z
2022-08-03T11:08:03Z,42.805,6.029,13.3014,4.60060,2470.591,2022-8-03T13:09:51Z
2022-08-03T11:11:06Z,42.805,6.029,13.3011,4.60064,2470.577,2022-8-03T13:12:54Z
2022-08-03T11:14:09Z,42.805,6.029,13.3012,4.60061,2470.567,2022-8-03T13:15:57Z
2022-08-03T11:17:12Z,42.805,6.029,13.3014,4.60056,2470.577,2022-8-03T13:19:01Z
2022-08-03T11:20:16Z,42.805,6.029,13.3015,4.60058,2470.553,2022-8-03T13:22:04Z
2022-08-03T11:23:19Z,42.805,6.029,13.3012,4.60061,2470.591,2022-8-03T13:25:07Z
2022-08-03T11:26:22Z,42.805,6.029,13.3012,4.60063,2470.577,2022-8-03T13:28:10Z
2022-08-03T11:29:25Z,42.805,6.029,13.3014,4.60057,2470.577,2022-8-03T13:31:13Z
2022-08-03T11:32:28Z,42.805,6.029,13.3014,4.60057,2470.553,2022-8-03T13:34:16Z
2022-08-03T11:35:31Z,42.805,6.029,13.3017,4.60059,2470.553,2022-8-03T13:37:19Z
2022-08-03T11:38:34Z,42.805,6.029,13.3019,4.60057,2470.553,2022-8-03T13:40:22Z
2022-08-03T11:41:37Z,42.805,6.029,13.3016,4.60058,2470.577,2022-8-03T13:43:26Z
2022-08-03T11:44:41Z,42.805,6.029,13.3011,4.60062,2470.577,2022-8-03T13:46:29Z
2022-08-03T11:47:44Z,42.805,6.029,13.3012,4.60057,2470.53,2022-8-03T13:49:32Z
2022-08-03T11:50:47Z,42.805,6.029,13.3015,4.60057,2470.567,2022-8-03T13:52:35Z
2022-08-03T11:53:50Z,42.805,6.029,13.3014,4.60068,2470.591,2022-8-03T13:55:38Z
2022-08-03T11:56:53Z,42.805,6.029,13.3019,4.60060,2470.553,2022-8-03T13:58:41Z
2022-08-03T11:59:56Z,42.805,6.029,13.3011,4.60056,2470.553,2022-8-03T14:01:44Z
2022-08-03T12:02:59Z,42.805,6.029,13.3017,4.60057,2470.577,2022-8-03T14:04:47Z
2022-08-03T12:06:02Z,42.805,6.029,13.3019,4.60055,2470.553,2022-8-03T14:07:51Z
2022-08-03T12:09:05Z,42.805,6.029,13.3013,4.60064,2470.53,2022-8-03T14:10:54Z
2022-08-03T12:12:09Z,42.805,6.029,13.3013,4.60059,2470.567,2022-8-03T14:13:57Z
2022-08-03T12:15:12Z,42.805,6.029,13.3014,4.60064,2470.507,2022-8-03T14:17:00Z
2022-08-03T12:18:15Z,42.805,6.029,13.3019,4.60067,2470.553,2022-8-03T14:20:03Z
2022-08-03T12:21:18Z,42.805,6.029,13.3015,4.60070,2470.567,2022-8-03T14:23:06Z
2022-08-03T12:24:21Z,42.805,6.029,13.3016,4.60064,2470.553,2022-8-03T14:26:09Z
2022-08-03T12:27:24Z,42.805,6.029,13.3011,4.60055,2470.53,2022-8-03T14:29:12Z
2022-08-03T12:30:27Z,42.805,6.029,13.3013,4.60057,2470.591,2022-8-03T14:32:15Z
2022-08-03T12:33:30Z,42.805,6.029,13.3015,4.60058,2470.553,2022-8-03T14:35:19Z
2022-08-03T12:36:34Z,42.805,6.029,13.3016,4.60057,2470.53,2022-8-03T14:38:22Z
2022-08-03T12:39:37Z,42.805,6.029,13.3007,4.60061,2470.53,2022-8-03T14:41:25Z
2022-08-03T12:42:40Z,42.805,6.029,13.3011,4.60057,2470.544,2022-8-03T14:44:28Z
2022-08-03T12:45:43Z,42.805,6.029,13.3019,4.60058,2470.567,2022-8-03T14:47:31Z
2022-08-03T12:48:46Z,42.805,6.029,13.3013,4.60062,2470.52,2022-8-03T14:50:34Z
2022-08-03T12:51:49Z,42.805,6.029,13.3015,4.60062,2470.53,2022-8-03T14:53:37Z
2022-08-03T12:54:52Z,42.805,6.029,13.3017,4.60062,2470.507,2022-8-03T14:56:40Z
2022-08-03T12:57:55Z,42.805,6.029,13.3015,4.60057,2470.53,2022-8-03T14:59:44Z
2022-08-03T13:00:59Z,42.805,6.029,13.3015,4.60058,2470.553,2022-8-03T15:02:47Z
2022-08-03T13:04:02Z,42.805,6.029,13.3014,4.60059,2470.507,2022-8-03T15:05:50Z
2022-08-03T13:07:05Z,42.805,6.029,13.3014,4.60055,2470.53,2022-8-03T15:08:53Z
2022-08-03T13:10:08Z,42.805,6.029,13.3019,4.60063,2470.53,2022-8-03T15:11:56Z
2022-08-03T13:13:11Z,42.805,6.029,13.3012,4.60059,2470.53,2022-8-03T15:14:59Z
2022-08-03T13:16:14Z,42.805,6.029,13.3012,4.60058,2470.567,2022-8-03T15:18:02Z
2022-08-03T13:19:17Z,42.805,6.029,13.3015,4.60059,2470.53,2022-8-03T15:21:05Z
2022-08-03T13:22:20Z,42.805,6.029,13.3014,4.60058,2470.52,2022-8-03T15:24:09Z
2022-08-03T13:25:24Z,42.805,6.029,13.3018,4.60057,2470.544,2022-8-03T15:27:12Z
2022-08-03T13:28:27Z,42.805,6.029,13.3014,4.60053,2470.53,2022-8-03T15:30:15Z
2022-08-03T13:31:30Z,42.805,6.029,13.3016,4.60061,2470.53,2022-8-03T15:33:18Z
2022-08-03T13:34:33Z,42.805,6.029,13.3012,4.60064,2470.53,2022-8-03T15:36:21Z
2022-08-03T13:37:36Z,42.805,6.029,13.3015,4.60058,2470.52,2022-8-03T15:39:24Z
2022-08-03T13:40:39Z,42.805,6.029,13.3011,4.60063,2470.507,2022-8-03T15:42:27Z
2022-08-03T13:43:42Z,42.805,6.029,13.3012,4.60066,2470.53,2022-8-03T15:45:30Z
2022-08-03T13:46:45Z,42.805,6.029,13.3015,4.60064,2470.544,2022-8-03T15:48:34Z
2022-08-03T13:49:49Z,42.805,6.029,13.3015,4.60060,2470.507,2022-8-03T15:51:37Z
2022-08-03T13:52:52Z,42.805,6.029,13.3009,4.60058,2470.544,2022-8-03T15:54:40Z
2022-08-03T13:55:55Z,42.805,6.029,13.3017,4.60060,2470.553,2022-8-03T15:57:43Z
2022-08-03T13:58:58Z,42.805,6.029,13.3014,4.60064,2470.483,2022-8-03T16:00:46Z
2022-08-03T14:02:01Z,42.805,6.029,13.3015,4.60059,2470.544,2022-8-03T16:03:49Z
2022-08-03T14:05:04Z,42.805,6.029,13.3012,4.60055,2470.53,2022-8-03T16:06:52Z
2022-08-03T14:08:07Z,42.805,6.029,13.3019,4.60056,2470.507,2022-8-03T16:09:55Z
2022-08-03T14:11:10Z,42.805,6.029,13.3012,4.60057,2470.52,2022-8-03T16:12:58Z
2022-08-03T14:14:13Z,42.805,6.029,13.3013,4.60054,2470.507,2022-8-03T16:16:02Z
2022-08-03T14:17:17Z,42.805,6.029,13.3011,4.60058,2470.52,2022-8-03T16:19:05Z
2022-08-03T14:20:20Z,42.805,6.029,13.3008,4.60059,2470.507,2022-8-03T16:22:08Z
2022-08-03T14:23:23Z,42.805,6.029,13.3013,4.60054,2470.507,2022-8-03T16:25:11Z
2022-08-03T14:26:26Z,42.805,6.029,13.3015,4.60055,2470.53,2022-8-03T16:28:14Z
2022-08-03T14:29:29Z,42.805,6.029,13.3015,4.60057,2470.507,2022-8-03T16:31:17Z
2022-08-03T14:32:32Z,42.805,6.029,13.3011,4.60059,2470.544,2022-8-03T16:34:20Z
2022-08-03T14:35:35Z,42.805,6.029,13.3015,4.60059,2470.52,2022-8-03T16:37:23Z
2022-08-03T14:38:38Z,42.805,6.029,13.3016,4.60062,2470.52,2022-8-03T16:40:27Z
2022-08-03T14:41:42Z,42.805,6.029,13.3012,4.60059,2470.507,2022-8-03T16:43:30Z
2022-08-03T14:44:45Z,42.805,6.029,13.3012,4.60054,2470.46,2022-8-03T16:46:33Z
2022-08-03T14:47:48Z,42.805,6.029,13.3011,4.60060,2470.497,2022-8-03T16:49:36Z
2022-08-03T14:50:51Z,42.805,6.029,13.3016,4.60055,2470.483,2022-8-03T16:52:39Z
2022-08-03T14:53:54Z,42.805,6.029,13.3016,4.60076,2470.52,2022-8-03T16:55:42Z
2022-08-03T14:56:57Z,42.805,6.029,13.3013,4.60054,2470.483,2022-8-03T16:58:45Z
2022-08-03T15:00:00Z,42.805,6.029,13.3012,4.60057,2470.483,2022-8-03T17:01:48Z
2022-08-03T15:03:03Z,42.805,6.029,13.3011,4.60054,2470.507,2022-8-03T17:04:52Z
2022-08-03T15:06:07Z,42.805,6.029,13.3014,4.60062,2470.544,2022-8-03T17:07:55Z
2022-08-03T15:09:10Z,42.805,6.029,13.3011,4.60052,2470.483,2022-8-03T17:10:58Z
2022-08-03T15:12:13Z,42.805,6.029,13.3014,4.60054,2470.507,2022-8-03T17:14:01Z
2022-08-03T15:15:16Z,42.805,6.029,13.3011,4.60058,2470.52,2022-8-03T17:17:04Z